Torna al catalogo

STARLINK-30152

AttivoComunicazioniVLEO
NORAD 56828·PAYLOAD·🇺🇸 United States

Lanciato Jun 4, 2023 da Cape Canaveral Space Force Station

Loading…

Prossimi Passaggi (prossime 24 ore)

TLE

AggiornatoSource: CelesTrak SupGP

Epoca: Sep 14, 2026, 22:27 UTC

1 56828C 23079F   26257.93590278 -.00030614  00000+0 -11091-2 0  2571
2 56828  43.0000 118.3560 0001327 273.9096 324.7771 15.27585224    14

Traccia STARLINK-30152 in tempo reale con AllMySat

Download on the App Store